TimeGMT,TemperatureF,Dew PointF,Humidity,Sea Level PressureIn,VisibilityMPH,Wind Direction,Wind SpeedMPH,Gust SpeedMPH,PrecipitationIn,Events,Conditions,WindDirDegrees,DateUTC
12:00 AM,51,49,92,29.34,12,South,13.4,,,Rain,Light Drizzle,180,2014-01-15 00:00:00
12:00 AM,50.0,50.0,100,29.33,6.2,South,12.7,-,N/A,,Overcast,180,2014-01-15 00:00:00
12:30 AM,50.0,50.0,100,29.30,6.2,South,13.8,-,N/A,,Overcast,190,2014-01-15 00:30:00
1:00 AM,51,49,92,29.31,11,South,13.4,,,Rain,Light Drizzle,180,2014-01-15 01:00:00
1:00 AM,50.0,50.0,100,29.30,6.2,South,12.7,-,N/A,,Light Drizzle,180,2014-01-15 01:00:00
1:30 AM,50.0,50.0,100,29.30,5.0,South,12.7,-,N/A,,Light Drizzle,180,2014-01-15 01:30:00
2:00 AM,50,49,96,29.29,12,South,11.2,,,Rain,Light Drizzle,170,2014-01-15 02:00:00
2:00 AM,50.0,50.0,100,29.27,6.2,South,11.5,-,N/A,,Mostly Cloudy,170,2014-01-15 02:00:00
2:30 AM,50.0,48.2,94,29.27,6.2,South,10.4,-,N/A,,Mostly Cloudy,170,2014-01-15 02:30:00
3:00 AM,50,49,93,29.26,12,SSE,13.4,,,,Partly Cloudy,150,2014-01-15 03:00:00
3:00 AM,50.0,48.2,94,29.24,6.2,SSE,12.7,-,N/A,,Mostly Cloudy,150,2014-01-15 03:00:00
3:30 AM,50.0,48.2,94,29.24,6.2,SSE,11.5,-,N/A,,Light Drizzle,150,2014-01-15 03:30:00
4:00 AM,49,48,94,29.22,12,South,13.4,,,Rain,Light Drizzle,170,2014-01-15 04:00:00
4:00 AM,50.0,48.2,94,29.21,6.2,South,13.8,-,N/A,,Mostly Cloudy,170,2014-01-15 04:00:00
4:30 AM,50.0,48.2,94,29.18,6.2,SE,11.5,-,N/A,,Light Drizzle,140,2014-01-15 04:30:00
5:00 AM,49,48,94,29.19,9,SSE,11.2,,,Rain,Light Drizzle,150,2014-01-15 05:00:00
5:00 AM,50.0,48.2,94,29.18,6.2,SSE,11.5,-,N/A,,Mostly Cloudy,150,2014-01-15 05:00:00
5:30 AM,48.2,48.2,100,29.15,6.2,SSE,12.7,-,N/A,,Mostly Cloudy,150,2014-01-15 05:30:00
6:00 AM,49,48,93,29.15,6,SE,13.4,,,Rain,Light Rain,140,2014-01-15 06:00:00
6:00 AM,48.2,48.2,100,29.15,6.2,SE,12.7,-,N/A,Rain,Light Rain,140,2014-01-15 06:00:00
6:30 AM,50.0,48.2,94,29.12,6.2,SSE,13.8,-,N/A,,Mostly Cloudy,150,2014-01-15 06:30:00
7:00 AM,49,48,95,29.12,7,SSE,13.4,,,Rain,Light Rain,150,2014-01-15 07:00:00
7:00 AM,50.0,48.2,94,29.12,6.2,SSE,13.8,-,N/A,Rain,Light Rain,150,2014-01-15 07:00:00
7:30 AM,50.0,48.2,94,29.09,6.2,SSE,13.8,-,N/A,,Mostly Cloudy,160,2014-01-15 07:30:00
8:00 AM,50,48,92,29.11,9,SSW,13.4,,,Rain,Light Rain,200,2014-01-15 08:00:00
8:00 AM,50.0,48.2,94,29.09,6.2,SSW,12.7,-,N/A,Rain,Light Rain,200,2014-01-15 08:00:00
8:30 AM,46.4,44.6,93,29.12,6.2,SW,13.8,-,N/A,Rain,Light Rain,220,2014-01-15 08:30:00
9:00 AM,46,45,94,29.12,12,SSW,8.9,,,Rain,Light Drizzle,210,2014-01-15 09:00:00
9:00 AM,46.4,44.6,93,29.12,6.2,SSW,8.1,-,N/A,,Light Drizzle,210,2014-01-15 09:00:00
9:30 AM,46.4,44.6,93,29.12,6.2,South,5.8,-,N/A,,Mostly Cloudy,170,2014-01-15 09:30:00
10:00 AM,47,44,86,29.14,11,SW,13.4,,,Rain,Light Rain,220,2014-01-15 10:00:00
10:00 AM,46.4,44.6,93,29.12,6.2,SW,13.8,27.6,N/A,Rain,Light Rain,220,2014-01-15 10:00:00
10:30 AM,44.6,41.0,87,29.12,6.2,SSW,11.5,-,N/A,,Scattered Clouds,200,2014-01-15 10:30:00
11:00 AM,45,42,84,29.13,16,South,8.9,,,Rain,Light Rain,170,2014-01-15 11:00:00
11:00 AM,44.6,41.0,87,29.12,6.2,South,9.2,-,N/A,,Partly Cloudy,170,2014-01-15 11:00:00
11:30 AM,46.4,42.8,87,29.12,6.2,SSW,10.4,-,N/A,,Partly Cloudy,200,2014-01-15 11:30:00
12:00 PM,48,42,73,29.13,19,SSW,15.7,,,,Partly Cloudy,210,2014-01-15 12:00:00
12:00 PM,48.2,42.8,82,29.12,6.2,SSW,15.0,-,N/A,,Partly Cloudy,210,2014-01-15 12:00:00
12:30 PM,48.2,42.8,82,29.12,6.2,South,11.5,-,N/A,,Partly Cloudy,190,2014-01-15 12:30:00
1:00 PM,49,42,71,29.12,16,South,11.2,,,,Scattered Clouds,180,2014-01-15 13:00:00
1:00 PM,50.0,42.8,76,29.12,6.2,South,11.5,-,N/A,,Partly Cloudy,180,2014-01-15 13:00:00
1:30 PM,50.0,41.0,71,29.09,6.2,South,11.5,-,N/A,,Partly Cloudy,190,2014-01-15 13:30:00
2:00 PM,49,42,67,29.11,19,South,13.4,,,,Scattered Clouds,180,2014-01-15 14:00:00
2:00 PM,48.2,41.0,76,29.09,6.2,South,12.7,-,N/A,,Partly Cloudy,180,2014-01-15 14:00:00
2:30 PM,48.2,41.0,76,29.09,6.2,South,13.8,-,N/A,Rain,Light Rain Showers,180,2014-01-15 14:30:00
3:00 PM,48,41,70,29.10,16,South,13.4,,,Rain,Light Rain Showers,190,2014-01-15 15:00:00
3:00 PM,48.2,41.0,76,29.09,6.2,South,12.7,-,N/A,,Partly Cloudy,190,2014-01-15 15:00:00
3:30 PM,48.2,41.0,76,29.09,6.2,South,12.7,-,N/A,,Partly Cloudy,170,2014-01-15 15:30:00
4:00 PM,47,41,71,29.09,16,South,11.2,,,,Scattered Clouds,170,2014-01-15 16:00:00
4:00 PM,48.2,41.0,76,29.09,6.2,South,11.5,-,N/A,,Partly Cloudy,170,2014-01-15 16:00:00
4:30 PM,46.4,41.0,81,29.06,6.2,South,11.5,-,N/A,,Partly Cloudy,180,2014-01-15 16:30:00
5:00 PM,45,40,75,29.09,16,SE,11.2,,,,Scattered Clouds,140,2014-01-15 17:00:00
5:00 PM,44.6,39.2,81,29.06,6.2,SE,10.4,-,N/A,,Partly Cloudy,140,2014-01-15 17:00:00
5:30 PM,44.6,39.2,81,29.09,6.2,SE,10.4,-,N/A,,Partly Cloudy,140,2014-01-15 17:30:00
6:00 PM,44,39,78,29.09,16,SSE,15.7,,,,Partly Cloudy,150,2014-01-15 18:00:00
6:00 PM,44.6,39.2,81,29.06,6.2,SSE,15.0,-,N/A,,Partly Cloudy,150,2014-01-15 18:00:00
6:30 PM,42.8,39.2,87,29.06,6.2,SE,10.4,-,N/A,,Partly Cloudy,140,2014-01-15 18:30:00
7:00 PM,42,39,87,29.08,16,SE,13.4,,,,Scattered Clouds,130,2014-01-15 19:00:00
7:00 PM,42.8,39.2,87,29.06,6.2,SE,12.7,-,N/A,,Partly Cloudy,130,2014-01-15 19:00:00
7:30 PM,42.8,39.2,87,29.06,6.2,SE,13.8,-,N/A,,Partly Cloudy,140,2014-01-15 19:30:00
8:00 PM,41,39,88,29.07,16,ESE,11.2,,,,Scattered Clouds,120,2014-01-15 20:00:00
8:00 PM,41.0,39.2,93,29.06,6.2,ESE,11.5,-,N/A,,Partly Cloudy,120,2014-01-15 20:00:00
8:30 PM,42.8,39.2,87,29.06,6.2,SE,11.5,-,N/A,,Partly Cloudy,130,2014-01-15 20:30:00
9:00 PM,42,38,83,29.05,12,SE,11.2,,,,Mostly Cloudy,130,2014-01-15 21:00:00
9:00 PM,42.8,39.2,87,29.06,6.2,SE,11.5,-,N/A,,Mostly Cloudy,130,2014-01-15 21:00:00
9:30 PM,41.0,39.2,93,29.03,6.2,ESE,10.4,-,N/A,,Mostly Cloudy,110,2014-01-15 21:30:00
10:00 PM,41,38,85,29.03,12,SE,11.2,,,,Scattered Clouds,130,2014-01-15 22:00:00
10:00 PM,41.0,37.4,87,29.03,6.2,SE,11.5,-,N/A,,Mostly Cloudy,130,2014-01-15 22:00:00
10:30 PM,41.0,39.2,93,29.00,6.2,SE,15.0,-,N/A,,Mostly Cloudy,130,2014-01-15 22:30:00
11:00 PM,41,38,87,29.01,12,SE,13.4,,,,Scattered Clouds,130,2014-01-15 23:00:00
11:00 PM,41.0,39.2,93,29.00,6.2,SE,12.7,-,N/A,,Mostly Cloudy,130,2014-01-15 23:00:00
11:30 PM,41.0,39.2,93,29.00,6.2,SE,12.7,-,N/A,,Mostly Cloudy,130,2014-01-15 23:30:00